Location: Bonningues
(50.7927°N, 2.0150°E)
Time: 22:27:11
(UTC+00:00)

Aureole 1 Rocket - Pass Details

Date: 08 August 2020
Orbit: 378 x 1379 km, 73.9° (Epoch: 22 September)

Event Time Altitude Azimuth Distance (km) Brightness Sun altitude
Rises 21:16:44 0° 198° (SSW) 3,654 6.7 -14.7°
Reaches altitude 10° 21:19:03 10° 197° (SSW) 2,839 6.1 -14.9°
Maximum altitude 21:25:57 82° 111° (ESE) 1,232 4.4 -15.6°
Drops below altitude 10° 21:34:18 10° 26° (NNE) 3,410 7.2 -16.4°
Sets 21:37:19 0° 26° (NNE) 4,427 7.8 -16.7°
